Weather History for Elizabeth City, NC

Change the Weather History Date:

Sunday, September 16, 2012

  Actual Average Record
Temperature  
Mean Temperature 69 °F 72 °F  
Max Temperature 81 °F 81 °F 94 °F (1943)
Min Temperature 56 °F 63 °F 52 °F (2000)
Degree Days  
Heating Degree Days 0 0  
Month to date heating degree days 0 0  
Since 1 July heating degree days 0 0  
Cooling Degree Days 4 7  
Month to date cooling degree days 204 147  
Year to date cooling degree days 2040 1443  
Growing Degree Days 18 (Base 50)    
Moisture  
Dew Point 56 °F    
Average Humidity 63    
Maximum Humidity 86    
Minimum Humidity 39    
Precipitation  
Precipitation T in 0.14 in 1.82 in (1963)
Month to date precipitation 1.29 2.20  
Year to date precipitation 37.78 36.16  
Snow  
Snow 0.00 in - 0.00 in (2002)
Month to date snowfall 0.0  
Since 1 July snowfall 0.0  
Snow Depth 0.00 in    
Sea Level Pressure  
Sea Level Pressure 30.14 in    
Wind  
Wind Speed 2 mph (NNW)    
Max Wind Speed 8 mph    
Max Gust Speed 13 mph    
Visibility 10 miles    
Events      
T = Trace of Precipitation, MM = Missing Value Source: NWS Daily Summary

Daily Weather History Graph

Daily Weather History Graph

Search for Another Location

Airport:

Trip Planner

Search our weather history database for the weather conditions in past years. The results will help you decide how hot, cold, wet, or windy it might be!

Date:

Astronomy

Sep. 16, 2012 Rise Set
Actual Time 6:48 AM EDT 7:09 PM EDT
Civil Twilight 6:22 AM EDT 7:35 PM EDT
Nautical Twilight 5:52 AM EDT 8:05 PM EDT
Astronomical Twilight 5:21 AM EDT 8:36 PM EDT
Moon 7:22 AM EDT (9/16) 7:17 PM EDT (9/16)
Length of Visible Light 13h 13m
Length of Day
12h 21m
New Moon, 0% of the Moon is Illuminated
Sep 16
New Moon
Sep 22
First Quarter
Sep 29
Full
Oct 8
Last Quarter
Oct 15
New

Hourly Weather History & Observations

Time (EDT) Temp. Heat Index Dew Point Humidity Pressure Visibility Wind Dir Wind Speed Gust Speed Precip Events Conditions
12:54 AM 61.0 °F - 54.0 °F 78% 30.14 in 10.0 mi Calm Calm - N/A   Clear
1:54 AM 59.0 °F - 54.0 °F 83% 30.14 in 10.0 mi Calm Calm - N/A   Clear
2:54 AM 57.0 °F - 53.1 °F 87% 30.13 in 10.0 mi Calm Calm - N/A   Clear
3:54 AM 57.9 °F - 54.0 °F 87% 30.13 in 10.0 mi Calm Calm - N/A   Clear
4:54 AM 57.0 °F - 53.1 °F 87% 30.14 in 10.0 mi West 3.5 mph - N/A   Clear
5:54 AM 60.1 °F - 54.0 °F 80% 30.14 in 10.0 mi Calm Calm - N/A   Clear
6:54 AM 57.0 °F - 52.0 °F 83% 30.16 in 10.0 mi Calm Calm - N/A   Clear
7:54 AM 63.0 °F - 57.0 °F 81% 30.16 in 10.0 mi Calm Calm - N/A   Clear
8:54 AM 69.1 °F - 59.0 °F 70% 30.17 in 10.0 mi Calm Calm - N/A   Clear
9:54 AM 75.0 °F - 57.0 °F 53% 30.17 in 10.0 mi NW 3.5 mph - N/A   Clear
10:54 AM 77.0 °F - 55.0 °F 47% 30.17 in 10.0 mi Calm Calm - N/A   Clear
11:54 AM 79.0 °F - 53.1 °F 40% 30.16 in 10.0 mi NE 5.8 mph - N/A   Clear
12:54 PM 80.1 °F 79.9 °F 53.1 °F 39% 30.15 in 10.0 mi Variable 4.6 mph - N/A   Partly Cloudy
1:54 PM 79.0 °F - 52.0 °F 39% 30.14 in 10.0 mi NNE 5.8 mph - N/A   Scattered Clouds
2:54 PM 78.1 °F - 54.0 °F 43% 30.13 in 10.0 mi Calm Calm - N/A   Overcast
3:54 PM 78.1 °F - 55.9 °F 46% 30.11 in 10.0 mi Variable 4.6 mph - N/A   Scattered Clouds
4:54 PM 75.9 °F - 52.0 °F 43% 30.11 in 10.0 mi SE 3.5 mph - N/A   Scattered Clouds
5:54 PM 73.9 °F - 53.1 °F 48% 30.10 in 10.0 mi ESE 3.5 mph - N/A   Mostly Cloudy
6:54 PM 70.0 °F - 59.0 °F 68% 30.11 in 10.0 mi West 3.5 mph - 0.00 in   Mostly Cloudy
7:54 PM 71.1 °F - 61.0 °F 70% 30.11 in 10.0 mi NW 3.5 mph - N/A   Overcast
8:54 PM 72.0 °F - 59.0 °F 64% 30.12 in 10.0 mi Calm Calm - N/A   Overcast
9:54 PM 72.0 °F - 57.9 °F 61% 30.13 in 10.0 mi Calm Calm - N/A   Overcast
10:54 PM 72.0 °F - 61.0 °F 68% 30.13 in 10.0 mi Calm Calm - N/A   Overcast
11:54 PM 70.0 °F - 62.1 °F 76% 30.13 in 10.0 mi Calm Calm - N/A   Overcast